EN

Hourly Weather Bolshie Shirdany

Today, 21 October, Wednesday

Time Temperature Precipitation Wind Pressure Humidity
00:00 +1°C° 0.2 mm 3 mps 748 mmHg 95%
01:00 0°C° 0 mm 3 mps 749 mmHg 93%
02:00 -1°C° 0 mm 4 mps 749 mmHg 91%
03:00 0°C° 0 mm 3 mps 749 mmHg 90%
04:00 -2°C° 0 mm 4 mps 749 mmHg 91%
05:00 -2°C° 0 mm 4 mps 749 mmHg 92%
06:00 -2°C° 0 mm 5 mps 749 mmHg 93%
07:00 -2°C° 0.1 mm 5 mps 749 mmHg 86%
08:00 -2°C° 0.1 mm 6 mps 749 mmHg 80%
09:00 -2°C° 0.1 mm 7 mps 750 mmHg 73%
10:00 -1°C° 0 mm 7 mps 750 mmHg 70%
11:00 -1°C° 0 mm 7 mps 750 mmHg 67%
12:00 -1°C° 0 mm 7 mps 750 mmHg 65%
13:00 -1°C° 0 mm 7 mps 751 mmHg 66%
14:00 -1°C° 0 mm 7 mps 751 mmHg 67%
15:00 -1°C° 0 mm 6 mps 751 mmHg 68%
16:00 -2°C° 0 mm 6 mps 751 mmHg 72%
17:00 -2°C° 0 mm 6 mps 752 mmHg 77%
18:00 -2°C° 0 mm 5 mps 752 mmHg 81%
19:00 -2°C° 0 mm 5 mps 752 mmHg 81%
20:00 -4°C° 0 mm 5 mps 752 mmHg 81%
21:00 -4°C° 0 mm 5 mps 752 mmHg 80%
22:00 -4°C° 0 mm 5 mps 752 mmHg 81%
23:00 -4°C° 0 mm 5 mps 752 mmHg 83%

Tomorrow, 22 October, Thursday

Time Temperature Precipitation Wind Pressure Humidity
00:00 -3°C° 0 mm 4 mps 752 mmHg 84%
01:00 -3°C° 0 mm 4 mps 753 mmHg 84%
02:00 -3°C° 0 mm 4 mps 753 mmHg 85%
03:00 -4°C° 0 mm 4 mps 753 mmHg 86%
04:00 -4°C° 0 mm 4 mps 753 mmHg 86%
05:00 -4°C° 0 mm 4 mps 753 mmHg 86%
06:00 -4°C° 0 mm 4 mps 753 mmHg 86%
07:00 -3°C° 0 mm 4 mps 754 mmHg 81%
08:00 -2°C° 0 mm 5 mps 754 mmHg 77%
09:00 -2°C° 0 mm 5 mps 754 mmHg 73%
10:00 -1°C° 0 mm 5 mps 754 mmHg 70%
11:00 0°C° 0 mm 5 mps 754 mmHg 66%
12:00 0°C° 0 mm 5 mps 754 mmHg 63%
13:00 0°C° 0 mm 4 mps 754 mmHg 64%
14:00 0°C° 0 mm 4 mps 754 mmHg 64%
15:00 0°C° 0 mm 4 mps 755 mmHg 64%
16:00 0°C° 0 mm 3 mps 755 mmHg 69%
17:00 +1°C° 0 mm 2 mps 755 mmHg 73%
18:00 -1°C° 0 mm 2 mps 755 mmHg 78%
19:00 0°C° 0 mm 1 mps 754 mmHg 79%
20:00 0°C° 0 mm 1 mps 754 mmHg 81%
21:00 0°C° 0 mm 1 mps 754 mmHg 83%
22:00 0°C° 0 mm 1 mps 754 mmHg 83%
23:00 0°C° 0 mm 1 mps 754 mmHg 83%

Day after tomorrow, 23 October, Friday

Time Temperature Precipitation Wind Pressure Humidity
00:00 -1°C° 0 mm 1 mps 754 mmHg 83%
01:00 0°C° 0 mm 1 mps 753 mmHg 82%
02:00 -2°C° 0 mm 2 mps 753 mmHg 82%
03:00 -2°C° 0 mm 2 mps 753 mmHg 82%
04:00 -2°C° 0 mm 3 mps 752 mmHg 81%
05:00 -2°C° 0 mm 3 mps 752 mmHg 81%
06:00 -1°C° 0 mm 3 mps 751 mmHg 80%
07:00 -2°C° 0 mm 4 mps 751 mmHg 85%
08:00 -1°C° 0 mm 5 mps 750 mmHg 89%
09:00 -2°C° 0 mm 6 mps 750 mmHg 93%
10:00 -1°C° 0.3 mm 6 mps 749 mmHg 94%
11:00 -1°C° 0.3 mm 6 mps 749 mmHg 95%
12:00 +1°C° 0.3 mm 6 mps 748 mmHg 96%
13:00 +1°C° 0.3 mm 6 mps 748 mmHg 95%
14:00 +1°C° 0.3 mm 6 mps 747 mmHg 94%
15:00 +2°C° 0.3 mm 6 mps 747 mmHg 94%
16:00 +2°C° 0.7 mm 6 mps 746 mmHg 95%
17:00 +2°C° 0.7 mm 5 mps 746 mmHg 95%
18:00 +2°C° 0.7 mm 5 mps 745 mmHg 96%
19:00 +3°C° 0.5 mm 4 mps 745 mmHg 97%
20:00 +4°C° 0.5 mm 4 mps 745 mmHg 97%
21:00 +4°C° 0.5 mm 3 mps 745 mmHg 98%
22:00 +4°C° 0.1 mm 3 mps 744 mmHg 97%
23:00 +5°C° 0.1 mm 3 mps 744 mmHg 96%

24 October, Saturday

Time Temperature Precipitation Wind Pressure Humidity
00:00 +5°C° 0.1 mm 4 mps 744 mmHg 96%
01:00 +6°C° 0.5 mm 4 mps 744 mmHg 96%
02:00 +6°C° 0.5 mm 4 mps 744 mmHg 96%
03:00 +6°C° 0.5 mm 4 mps 743 mmHg 97%
04:00 +6°C° 1 mm 4 mps 743 mmHg 96%
05:00 +6°C° 1 mm 4 mps 742 mmHg 96%
06:00 +6°C° 1 mm 4 mps 742 mmHg 96%
07:00 +6°C° 1 mm 4 mps 741 mmHg 96%
08:00 +7°C° 1 mm 3 mps 741 mmHg 97%
09:00 +7°C° 1 mm 3 mps 741 mmHg 97%
10:00 +7°C° 0.2 mm 4 mps 741 mmHg 94%
11:00 +9°C° 0.2 mm 5 mps 741 mmHg 91%
12:00 +10°C° 0.2 mm 5 mps 741 mmHg 87%
13:00 +10°C° 0.1 mm 5 mps 742 mmHg 86%
14:00 +11°C° 0.1 mm 4 mps 742 mmHg 85%
15:00 +11°C° 0.1 mm 4 mps 743 mmHg 84%
16:00 +10°C° 0 mm 4 mps 743 mmHg 86%
17:00 +8°C° 0 mm 4 mps 744 mmHg 87%
18:00 +8°C° 0 mm 3 mps 744 mmHg 88%
19:00 +8°C° 0 mm 3 mps 745 mmHg 87%
20:00 +8°C° 0 mm 3 mps 746 mmHg 87%
21:00 +8°C° 0 mm 3 mps 746 mmHg 87%
22:00 +8°C° 0 mm 3 mps 746 mmHg 87%
23:00 +8°C° 0 mm 2 mps 746 mmHg 88%

25 October, Sunday

Time Temperature Precipitation Wind Pressure Humidity
00:00 +8°C° 0 mm 2 mps 747 mmHg 89%
01:00 +8°C° 0 mm 2 mps 747 mmHg 88%
02:00 +8°C° 0 mm 2 mps 747 mmHg 87%
03:00 +8°C° 0 mm 2 mps 747 mmHg 87%
04:00 +9°C° 0 mm 1 mps 747 mmHg 86%
05:00 +9°C° 0 mm 1 mps 747 mmHg 86%
06:00 +9°C° 0 mm 1 mps 747 mmHg 86%
07:00 +9°C° 0 mm 1 mps 747 mmHg 85%
08:00 +9°C° 0 mm 1 mps 747 mmHg 84%
09:00 +9°C° 0 mm 1 mps 747 mmHg 83%
10:00 +10°C° 0 mm 1 mps 747 mmHg 79%
11:00 +10°C° 0 mm 2 mps 747 mmHg 75%
12:00 +10°C° 0 mm 2 mps 747 mmHg 72%
13:00 +10°C° 0 mm 2 mps 746 mmHg 75%
14:00 +10°C° 0 mm 2 mps 746 mmHg 78%
15:00 +10°C° 0 mm 2 mps 746 mmHg 82%
16:00 +9°C° 0.2 mm 2 mps 746 mmHg 85%
17:00 +9°C° 0.2 mm 3 mps 746 mmHg 88%
18:00 +8°C° 0.2 mm 3 mps 746 mmHg 91%
19:00 +8°C° 0.3 mm 3 mps 746 mmHg 91%
20:00 +7°C° 0.3 mm 4 mps 746 mmHg 92%
21:00 +7°C° 0.3 mm 4 mps 745 mmHg 92%
22:00 +7°C° 0.3 mm 5 mps 746 mmHg 90%
23:00 +7°C° 0.3 mm 5 mps 746 mmHg 89%

26 October, Monday

Time Temperature Precipitation Wind Pressure Humidity
00:00 +7°C° 0.3 mm 6 mps 746 mmHg 88%
01:00 +7°C° 0.3 mm 5 mps 746 mmHg 87%
02:00 +7°C° 0.3 mm 5 mps 747 mmHg 87%
03:00 +7°C° 0.3 mm 5 mps 747 mmHg 87%
04:00 +6°C° 0.1 mm 5 mps 748 mmHg 87%
05:00 +6°C° 0.1 mm 5 mps 749 mmHg 87%
06:00 +6°C° 0.1 mm 5 mps 750 mmHg 88%
07:00 +6°C° 0 mm 5 mps 750 mmHg 87%
08:00 +6°C° 0 mm 5 mps 751 mmHg 86%
09:00 +4°C° 0 mm 6 mps 752 mmHg 85%
10:00 +6°C° 0 mm 5 mps 752 mmHg 80%
11:00 +6°C° 0 mm 5 mps 753 mmHg 75%
12:00 +7°C° 0 mm 5 mps 754 mmHg 69%
13:00 +7°C° 0 mm 4 mps 754 mmHg 68%
14:00 +6°C° 0 mm 4 mps 755 mmHg 67%
15:00 +6°C° 0 mm 4 mps 755 mmHg 66%
16:00 +5°C° 0 mm 3 mps 756 mmHg 72%
17:00 +4°C° 0 mm 3 mps 756 mmHg 78%
18:00 +4°C° 0 mm 2 mps 757 mmHg 84%
19:00 +4°C° 0 mm 2 mps 757 mmHg 85%
20:00 +4°C° 0 mm 2 mps 757 mmHg 87%
21:00 +4°C° 0 mm 2 mps 758 mmHg 89%
22:00 +4°C° 0 mm 1 mps 758 mmHg 89%
23:00 +4°C° 0 mm 1 mps 758 mmHg 90%

27 October, Tuesday

Time Temperature Precipitation Wind Pressure Humidity
00:00 +4°C° 0 mm 1 mps 758 mmHg 91%
01:00 +4°C° 0 mm 1 mps 758 mmHg 91%
02:00 +4°C° 0 mm 1 mps 759 mmHg 92%
03:00 +4°C° 0 mm 1 mps 759 mmHg 93%
04:00 +4°C° 0 mm 1 mps 759 mmHg 93%
05:00 +4°C° 0 mm 1 mps 759 mmHg 94%
06:00 +4°C° 0 mm 1 mps 760 mmHg 94%
07:00 +4°C° 0 mm 1 mps 760 mmHg 93%
08:00 +5°C° 0 mm 1 mps 760 mmHg 91%
09:00 +6°C° 0 mm 1 mps 760 mmHg 89%
10:00 +6°C° 0 mm 2 mps 761 mmHg 85%
11:00 +7°C° 0 mm 2 mps 761 mmHg 81%
12:00 +8°C° 0 mm 2 mps 761 mmHg 77%
13:00 +8°C° 0 mm 2 mps 761 mmHg 79%
14:00 +8°C° 0 mm 2 mps 761 mmHg 80%
15:00 +8°C° 0 mm 2 mps 761 mmHg 81%
16:00 +7°C° 0 mm 2 mps 761 mmHg 84%
17:00 +7°C° 0 mm 2 mps 761 mmHg 88%
18:00 +6°C° 0 mm 2 mps 762 mmHg 91%
19:00 +5°C° 0 mm 2 mps 762 mmHg 91%
20:00 +5°C° 0 mm 2 mps 762 mmHg 92%
21:00 +5°C° 0 mm 2 mps 762 mmHg 93%
22:00 +4°C° 0 mm 2 mps 762 mmHg 93%
23:00 +4°C° 0 mm 2 mps 762 mmHg 93%
Show more